CDT,Max TemperatureF,Mean TemperatureF,Min TemperatureF,Max Dew PointF,MeanDew PointF,Min DewpointF,Max Humidity, Mean Humidity, Min Humidity, Max Sea Level PressureIn, Mean Sea Level PressureIn, Min Sea Level PressureIn, Max VisibilityMiles, Mean VisibilityMiles, Min VisibilityMiles, Max Wind SpeedMPH, Mean Wind SpeedMPH, Max Gust SpeedMPH,PrecipitationIn, CloudCover, Events, WindDirDegrees
2013-9-1,102,90,78,71,68,62,79,54,29,29.91,29.85,29.78,10,10,10,20,7,24,0.00,0,,186
2013-9-2,93,85,76,79,72,66,100,71,41,30.01,29.92,29.86,10,10,4,10,3,13,0.17,2,Rain-Thunderstorm,156
2013-9-3,101,88,75,74,69,64,94,64,33,29.98,29.92,29.85,10,10,9,10,3,15,0.00,1,,53
2013-9-4,100,87,74,72,69,63,87,59,31,30.05,30.00,29.94,10,10,10,13,5,17,0.00,1,,111
2013-9-5,100,87,74,70,64,56,82,53,24,30.12,30.05,30.00,10,10,10,14,4,20,0.00,0,,78
2013-9-6,99,86,73,71,63,56,84,54,24,30.10,30.02,29.95,10,10,9,14,3,18,0.00,1,,169
2013-9-7,99,87,74,72,66,58,87,57,26,30.06,29.99,29.92,10,10,10,21,6,25,0.00,1,,166
2013-9-8,98,85,71,70,63,56,90,58,25,30.01,29.95,29.88,10,10,10,16,6,23,0.00,0,,171
2013-9-9,97,84,70,69,63,55,84,56,27,30.03,29.97,29.93,10,10,10,16,6,32,0.00,1,,161
2013-9-10,92,83,73,71,66,59,87,62,36,30.11,30.06,30.00,10,10,10,16,4,20,0.00,0,,164
2013-9-11,95,84,73,69,65,63,74,57,39,30.13,30.07,30.01,10,10,10,16,4,21,0.00,0,,125
2013-9-12,99,86,73,68,63,55,79,52,25,30.08,30.01,29.91,10,10,9,12,2,16,0.00,2,,74
2013-9-13,96,85,74,68,66,64,74,56,38,29.96,29.91,29.83,10,10,8,13,4,17,T,1,,84
2013-9-14,94,84,73,63,58,54,58,44,30,30.00,29.94,29.89,10,10,10,16,9,21,0.00,0,,80
2013-9-15,96,84,71,62,57,52,53,42,30,30.05,30.00,29.96,10,10,10,13,6,16,0.00,0,,108
2013-9-16,97,77,57,70,63,59,79,55,30,30.10,30.04,29.97,10,10,10,14,5,24,0.00,1,,129
2013-9-17,95,85,75,67,64,60,74,54,33,30.09,30.02,29.95,10,10,10,15,5,18,0.00,1,,134
2013-9-18,97,86,75,68,63,55,74,50,26,30.04,29.97,29.89,10,10,10,15,6,18,0.00,0,,154
2013-9-19,96,86,76,72,69,64,82,61,39,30.01,29.94,29.87,10,10,10,23,7,33,0.01,2,Rain,148
2013-9-20,77,74,70,75,72,69,100,91,82,29.92,29.86,29.81,10,6,0,23,9,30,5.23,8,Fog-Rain,60
2013-9-21,84,74,63,70,59,45,100,63,26,29.94,29.89,29.84,10,10,8,17,9,24,T,4,Rain,17
2013-9-22,83,70,57,54,50,46,86,57,28,29.94,29.87,29.81,10,10,10,16,6,22,0.00,0,,67
2013-9-23,86,72,57,63,55,51,80,57,34,29.88,29.83,29.77,10,10,10,15,3,18,0.00,1,,94
2013-9-24,93,80,66,63,58,49,81,52,23,29.91,29.86,29.82,10,10,10,16,4,21,0.00,0,,353
2013-9-25,93,77,60,58,52,41,84,51,18,29.90,29.85,29.80,10,10,10,12,2,16,0.00,0,,66
2013-9-26,92,78,63,61,56,53,73,52,30,29.93,29.87,29.82,10,10,10,14,7,16,0.00,0,,152
2013-9-27,90,78,65,66,63,59,81,61,40,29.98,29.93,29.89,10,10,10,16,8,22,0.00,2,,147
2013-9-28,86,79,71,74,70,65,84,73,61,30.03,29.98,29.92,10,9,2,24,7,29,0.99,6,Rain-Thunderstorm,156
2013-9-29,77,72,67,73,68,66,100,87,74,30.03,29.97,29.92,10,9,2,13,4,15,0.23,6,Rain,329
2013-9-30,85,77,69,71,68,65,90,73,55,29.92,29.88,29.83,10,10,7,10,4,14,0.00,3,,159